Weather History for Duluth, MN

Change the Weather History Date:

Friday, February 21, 2014

  Actual Average Record
Temperature  
Mean Temperature 16 °F 17 °F  
Max Temperature 28 °F 26 °F 57 °F (1877)
Min Temperature 4 °F 8 °F -27 °F (1963)
Degree Days  
Heating Degree Days 49 48  
Month to date heating degree days 1213 1074  
Since 1 July heating degree days 6991 6542  
Cooling Degree Days 0 0  
Month to date cooling degree days 0 0  
Year to date cooling degree days 0 0  
Moisture  
Dew Point 6 °F    
Average Humidity 76    
Maximum Humidity 85    
Minimum Humidity 66    
Precipitation  
Precipitation 0.20 in 0.03 in 0.76 in (1922)
Month to date precipitation 2.12 0.54  
Year to date precipitation 2.85 1.50  
Snow  
Snow 3.40 in 0.40 in 5.80 in (1960)
Month to date snowfall 29.5 8.8  
Since 1 July snowfall 83.8 62.0  
Snow Depth 36.00 in    
Sea Level Pressure  
Sea Level Pressure 29.27 in    
Wind  
Wind Speed 21 mph (WNW)    
Max Wind Speed 31 mph    
Max Gust Speed 42 mph    
Visibility 2 miles    
Events Fog , Snow    
T = Trace of Precipitation, MM = Missing Value Source: NWS Daily Summary

Daily Weather History Graph

Daily Weather History Graph

Search for Another Location

Airport:

Trip Planner

Search our weather history database for the weather conditions in past years. The results will help you decide how hot, cold, wet, or windy it might be!

Date:

Astronomy

Feb. 21, 2014 Rise Set
Actual Time 7:02 AM CST 5:42 PM CST
Civil Twilight 6:31 AM CST 6:13 PM CST
Nautical Twilight 5:56 AM CST 6:48 PM CST
Astronomical Twilight 5:21 AM CST 7:23 PM CST
Moon 12:00 AM CST 10:02 AM CST
Length of Visible Light 11h 41m
Length of Day
10h 39m
Waning Gibbous, 60% of the Moon is Illuminated
Feb 21
Waning Gibbous
Feb 22
Last Quarter
Mar 1
New
Mar 8
First Quarter
Mar 16
Full

Hourly Weather History & Observations

Time (CST) Temp. Windchill Dew Point Humidity Pressure Visibility Wind Dir Wind Speed Gust Speed Precip Events Conditions
12:02 AM 28.0 °F 16.5 °F 25.0 °F 88% 29.13 in 0.5 mi NNW 15.0 mph 26.5 mph 0.01 in Fog , Snow Snow
12:17 AM 28.0 °F 16.1 °F 25.0 °F 88% 29.12 in 0.5 mi NNW 16.1 mph 25.3 mph 0.02 in Fog , Snow Snow
12:38 AM 28.0 °F 16.5 °F 25.0 °F 88% 29.11 in 0.5 mi NNW 15.0 mph 24.2 mph 0.04 in Fog , Snow Snow
12:45 AM 28.0 °F 15.7 °F 25.0 °F 88% 29.10 in 0.5 mi NNW 17.3 mph 25.3 mph 0.05 in Fog , Snow Snow
12:55 AM 28.0 °F 16.1 °F 25.0 °F 88% 29.16 in 0.5 mi NNW 16.1 mph 27.6 mph 0.05 in Fog , Snow Snow
1:55 AM 21.9 °F 7.8 °F 18.0 °F 85% 29.15 in 0.5 mi NW 17.3 mph 29.9 mph 0.03 in Fog , Snow Snow
2:13 AM 19.9 °F 5.7 °F 16.0 °F 85% 29.08 in 0.5 mi NW 16.1 mph 31.1 mph 0.00 in Fog , Snow Snow
2:33 AM 19.9 °F 5.2 °F 15.1 °F 81% 29.08 in 0.8 mi NW 17.3 mph 31.1 mph 0.11 in Snow Light Snow
2:44 AM 19.0 °F 3.6 °F 14.0 °F 81% 29.08 in 1.0 mi NW 18.4 mph 27.6 mph 0.11 in Snow Light Snow
2:55 AM 19.0 °F 3.6 °F 14.0 °F 81% 29.15 in 0.8 mi NW 18.4 mph 29.9 mph 0.11 in Snow Light Snow
3:17 AM 18.0 °F 0.6 °F 12.9 °F 81% 29.08 in 1.0 mi NW 23.0 mph 29.9 mph 0.00 in Snow Light Snow
3:53 AM 17.6 °F 2.2 °F 10.4 °F 73% 29.09 in 0.8 mi NW 17.3 mph 28.8 mph 0.00 in Snow Light Snow
3:55 AM 17.1 °F 1.5 °F 10.9 °F 77% 29.16 in 0.8 mi NW 17.3 mph 28.8 mph 0.00 in Snow Light Snow
4:21 AM 16.0 °F -0.9 °F 10.9 °F 81% 29.09 in 0.5 mi NW 19.6 mph 27.6 mph 0.14 in Snow Snow
4:42 AM 15.1 °F -2.9 °F 10.0 °F 80% 29.09 in 0.5 mi NW 21.9 mph 31.1 mph 0.14 in Snow Snow
4:55 AM 14.0 °F -3.0 °F 9.0 °F 80% 29.16 in 0.5 mi WNW 18.4 mph 31.1 mph 0.14 in Snow Snow
5:08 AM 14.0 °F -3.4 °F 9.0 °F 80% 29.09 in 0.5 mi WNW 19.6 mph 31.1 mph 0.00 in Snow Snow
5:17 AM 14.0 °F -4.7 °F 9.0 °F 80% 29.09 in 0.2 mi WNW 23.0 mph 32.2 mph 0.00 in Snow Heavy Snow
5:40 AM 12.9 °F -5.3 °F 8.1 °F 81% 29.09 in 0.5 mi NW 20.7 mph 29.9 mph 0.00 in Snow Light Snow
5:52 AM 12.2 °F -5.8 °F 6.8 °F 79% 29.09 in 0.5 mi NW 19.6 mph 33.4 mph 0.00 in Snow Light Snow
5:55 AM 12.9 °F -5.3 °F 7.0 °F 77% 29.17 in 0.5 mi WNW 20.7 mph 32.2 mph 0.06 in Snow Light Snow
6:04 AM 12.0 °F -6.5 °F 7.0 °F 80% 29.10 in 0.5 mi WNW 20.7 mph 33.4 mph 0.01 in Snow Light Snow
6:55 AM 10.9 °F -9.2 °F 5.0 °F 77% 29.18 in 0.5 mi WNW 24.2 mph 34.5 mph 0.04 in Snow Snow
7:13 AM 10.0 °F -10.4 °F 3.9 °F 76% 29.12 in 0.8 mi WNW 24.2 mph 33.4 mph 0.00 in Snow Light Snow
7:55 AM 10.0 °F -10.8 °F 3.9 °F 76% 29.19 in 0.8 mi WNW 25.3 mph 34.5 mph 0.22 in Snow Light Snow
8:19 AM 10.0 °F -10.4 °F 3.9 °F 76% 29.12 in 0.8 mi WNW 24.2 mph 33.4 mph 0.51 in Snow Light Snow
8:35 AM 10.0 °F -10.8 °F 3.9 °F 76% 29.12 in 0.8 mi WNW 25.3 mph 38.0 mph 0.75 in Snow Light Snow
8:43 AM 10.0 °F -10.0 °F 3.0 °F 73% 29.12 in 0.8 mi WNW 23.0 mph 38.0 mph 0.01 in Snow Light Snow
8:55 AM 10.0 °F -8.6 °F 3.9 °F 76% 29.20 in 0.8 mi WNW 19.6 mph 32.2 mph 0.01 in Snow Light Snow
9:55 AM 10.0 °F -9.1 °F 3.0 °F 73% 29.23 in 0.8 mi WNW 20.7 mph 32.2 mph 0.00 in Snow Light Snow
10:41 AM 10.9 °F -7.0 °F 3.0 °F 70% 29.18 in 1.5 mi WNW 18.4 mph 28.8 mph 1.38 in Snow Light Snow
10:55 AM 10.0 °F -11.1 °F 3.0 °F 73% 29.26 in 1.5 mi WNW 26.5 mph 34.5 mph 0.00 in Snow Light Snow
11:55 AM 10.9 °F -9.2 °F 3.0 °F 70% 29.28 in 1.5 mi West 24.2 mph 34.5 mph 0.00 in Snow Light Snow
12:20 PM 12.0 °F -7.7 °F 3.9 °F 70% 29.21 in 3.0 mi WNW 24.2 mph 36.8 mph 0.00 in Snow Blowing Snow
12:55 PM 10.9 °F -9.9 °F 1.9 °F 67% 29.30 in 3.0 mi West 26.5 mph 39.1 mph 0.00 in Snow Blowing Snow
1:22 PM 10.9 °F -9.9 °F 1.9 °F 67% 29.23 in 3.0 mi West 26.5 mph 40.3 mph 0.39 in Snow Blowing Snow
1:34 PM 10.9 °F -8.3 °F 3.0 °F 70% 29.24 in 2.0 mi West 21.9 mph 35.7 mph 0.39 in Snow Blowing Snow
1:55 PM 10.9 °F -10.6 °F 3.0 °F 70% 29.32 in 2.0 mi West 28.8 mph 33.4 mph 0.45 in Snow Blowing Snow
2:23 PM 10.9 °F -10.6 °F 3.0 °F 70% 29.25 in 2.0 mi West 28.8 mph 38.0 mph 0.07 in Snow Blowing Snow
2:55 PM 10.9 °F -7.9 °F 3.0 °F 70% 29.36 in 2.0 mi WNW 20.7 mph 29.9 mph 0.53 in Snow Blowing Snow
2:57 PM 10.9 °F -6.5 °F 3.0 °F 70% 29.27 in 0.8 mi WNW 17.3 mph 29.9 mph 0.08 in Snow Blowing Snow
3:07 PM 10.9 °F -9.9 °F 3.0 °F 70% 29.28 in 0.8 mi West 26.5 mph 35.7 mph 0.44 in Snow Blowing Snow
3:22 PM 10.9 °F -8.3 °F 3.0 °F 70% 29.29 in 0.8 mi WNW 21.9 mph 34.5 mph 0.44 in Snow Blowing Snow
3:33 PM 10.9 °F -7.9 °F 3.0 °F 70% 29.29 in 1.0 mi WNW 20.7 mph 32.2 mph 0.44 in Snow Blowing Snow
3:48 PM 10.9 °F -9.6 °F 3.0 °F 70% 29.30 in 1.0 mi WNW 25.3 mph 33.4 mph 0.56 in Snow Blowing Snow
3:55 PM 10.9 °F -8.8 °F 3.0 °F 70% 29.39 in 1.0 mi WNW 23.0 mph 34.5 mph 0.62 in Snow Blowing Snow
4:42 PM 10.9 °F -8.3 °F 1.9 °F 67% 29.34 in 2.0 mi WNW 21.9 mph 31.1 mph 0.26 in Snow Blowing Snow
4:55 PM 10.0 °F -8.1 °F 1.9 °F 70% 29.44 in 2.0 mi WNW 18.4 mph 29.9 mph 0.33 in Snow Blowing Snow
5:02 PM 10.0 °F -8.1 °F 1.9 °F 70% 29.35 in 1.0 mi WNW 18.4 mph 32.2 mph N/A Snow Blowing Snow
5:55 PM 9.0 °F -10.0 °F 1.9 °F 73% 29.47 in 1.5 mi WNW 19.6 mph 27.6 mph 0.14 in Snow Blowing Snow
6:32 PM 9.0 °F -12.2 °F 1.9 °F 73% 29.39 in 1.5 mi WNW 25.3 mph 39.1 mph 0.02 in Snow Blowing Snow
6:55 PM 8.1 °F -12.2 °F 1.0 °F 73% 29.50 in 1.2 mi WNW 21.9 mph 29.9 mph 0.02 in Snow Blowing Snow
7:20 PM 8.1 °F -11.7 °F -0.0 °F 70% 29.42 in 1.8 mi WNW 20.7 mph 32.2 mph 0.01 in Snow Blowing Snow
7:43 PM 7.0 °F -13.1 °F -0.0 °F 73% 29.43 in 2.0 mi WNW 20.7 mph 38.0 mph 0.05 in Snow Blowing Snow
7:51 PM 6.8 °F -12.4 °F -0.4 °F 72% 29.43 in 1.8 mi WNW 18.4 mph 26.5 mph 0.20 in Snow Blowing Snow
7:55 PM 7.0 °F -11.0 °F -0.0 °F 73% 29.54 in 2.0 mi WNW 16.1 mph 31.1 mph 0.23 in Snow Blowing Snow
8:13 PM 7.0 °F -14.5 °F -0.0 °F 73% 29.44 in 1.8 mi West 24.2 mph 33.4 mph 0.03 in Snow Blowing Snow
8:27 PM 7.0 °F -13.1 °F -0.9 °F 70% 29.45 in 3.0 mi WNW 20.7 mph 38.0 mph 0.03 in Snow Blowing Snow
8:45 PM 6.1 °F -13.8 °F -0.9 °F 73% 29.46 in 2.5 mi WNW 19.6 mph 26.5 mph 0.18 in Snow Blowing Snow
8:55 PM 6.1 °F -13.8 °F -0.9 °F 73% 29.57 in 4.0 mi WNW 19.6 mph 28.8 mph 0.18 in Snow Blowing Snow
9:23 PM 6.1 °F -13.8 °F -2.0 °F 69% 29.48 in 5.0 mi WNW 19.6 mph 29.9 mph 0.12 in Snow Blowing Snow
9:46 PM 6.1 °F -13.8 °F -0.9 °F 73% 29.49 in 6.0 mi WNW 19.6 mph 26.5 mph 0.12 in Snow Blowing Snow
9:55 PM 6.1 °F -13.8 °F -0.9 °F 73% 29.59 in 7.0 mi WNW 19.6 mph 33.4 mph 0.13 in Snow Light Snow
10:55 PM 5.0 °F -15.7 °F -2.0 °F 73% 29.61 in 5.0 mi WNW 20.7 mph 31.1 mph 0.28 in Snow Blowing Snow
11:55 PM 3.9 °F -17.1 °F -2.9 °F 73% 29.62 in 4.0 mi West 20.7 mph 29.9 mph 0.04 in Snow Blowing Snow